Volver al catálogo

STARLINK-35347

ActivoComunicacionesVLEO
NORAD 65907·PAYLOAD·🇺🇸 United States

Lanzado Oct 7, 2025 desde Cape Canaveral Space Force Station

Loading…

Próximos Pases (próximas 24 horas)

TLE

ActualizadoSource: CelesTrak SupGP

Época: Sep 14, 2026, 15:40 UTC

1 65907C 25224AB  26257.65326389  .00031342  00000+0  92622-3 0  2579
2 65907  53.1573 209.2040 0001244 102.9015  45.9404 15.34367406    15

Sigue STARLINK-35347 en tiempo real con AllMySat

Download on the App Store